sat.trackr.live / text

‹ back to catalog

HULIANWANG DIGUI-59

NORAD 65165 · 2025-174B

PAYLOAD ACTIVE UNKNOWN

§ Identity

Operator
Country
PRC
Launch date
2025-08-13
Launch site
WSC
Launch vehicle
Mass (kg)
RCS (m²)

External: N2YO · Heavens-Above · Gunter

§ Orbital elements

Epoch: 2026-05-25T05:33:39.053664Z

Period
108.73 min
Inclination
86.4919°
Eccentricity
0.0001872
Mean motion
13.24404304 rev/d
Perigee alt
1,166.5 km
Apogee alt
1,169.4 km
Semi-major
7,546.1 km
B*
-1.9243e-5
RAAN
259.6552°
Arg perigee
98.0083°
Mean anomaly
262.1263°
Rev number
3,775

§ Raw data

HULIANWANG DIGUI-591 65165U 25174B   26145.23170201  .00000006  00000+0 -19243-4 0  99952 65165  86.4919 259.6552 0001872  98.0083 262.1263 13.24404304 37751

JSON: /api/v1/satellites/65165 · /tle

For live sub-satellite position, see the globe view (requires WebGL).

§ Visibility from observer

Set your observer location to see the next 7 days of passes ≥ 10°. The values pass through the URL so the page stays shareable.

No JS? Fill the form by hand. The geolocation button needs JavaScript.